AWG22 LROP-LUKK

Flight info

Callsign AWG22
Flight time 0h 37m
Altitude 29000
Route DENAK DCT URELA DCT FOCSA DCT KENUX DCT BCU DCT BUSES
Aircraft A320/M-SDE3FGHIRWY/LB1

Departure

Time 2026-05-04 18:26
Airport Bucharest Henri Coandă International Airport (LROP)

Arrival

Time 2026-05-04 19:03
Airport Chişinău International Airport (LUKK)
Time Latitude Longitude Altitude Speed Heading
2026-05-04 18:10 44.57264 26.08040 318 ft 0 kts 354°
2026-05-04 18:18 44.57263 26.08040 318 ft 1 kts 354°
2026-05-04 18:19 44.57228 26.08045 315 ft 2 kts 356°
2026-05-04 18:19 44.57211 26.08047 315 ft 2 kts 27°
2026-05-04 18:19 44.57201 26.08036 314 ft 0 kts 79°
2026-05-04 18:21 44.57201 26.08039 314 ft 0 kts 80°
2026-05-04 18:22 44.57203 26.08052 316 ft 4 kts 82°
2026-05-04 18:22 44.57208 26.08123 316 ft 11 kts 84°
2026-05-04 18:23 44.57219 26.08259 317 ft 17 kts 84°
2026-05-04 18:23 44.57231 26.08444 317 ft 20 kts 85°
2026-05-04 18:23 44.57265 26.08499 318 ft 2 kts 356°
2026-05-04 18:23 44.57296 26.08495 319 ft 8 kts 354°
2026-05-04 18:24 44.57377 26.08484 321 ft 15 kts 355°
2026-05-04 18:24 44.57459 26.08474 322 ft 20 kts 352°
2026-05-04 18:24 44.57616 26.08450 326 ft 25 kts 356°
2026-05-04 18:24 44.57672 26.08538 327 ft 15 kts 83°
2026-05-04 18:25 44.57684 26.08752 322 ft 37 kts 83°
2026-05-04 18:25 44.57740 26.09460 316 ft 105 kts 84°
2026-05-04 18:25 44.57836 26.10729 318 ft 155 kts 85°
2026-05-04 18:25 44.57933 26.12305 767 ft 163 kts 85°
2026-05-04 18:26 44.58053 26.13917 1343 ft 170 kts 83°
2026-05-04 18:26 44.58198 26.15580 1954 ft 173 kts 81°
2026-05-04 18:26 44.58367 26.17292 2477 ft 181 kts 79°
2026-05-04 18:26 44.58836 26.18960 2818 ft 194 kts 44°
2026-05-04 18:27 44.60063 26.19901 3043 ft 214 kts 19°
2026-05-04 18:27 44.61543 26.20683 3363 ft 239 kts 20°
2026-05-04 18:27 44.63148 26.21584 3915 ft 254 kts 22°
2026-05-04 18:27 44.64791 26.22537 4814 ft 256 kts 22°
2026-05-04 18:28 44.66433 26.23501 5766 ft 255 kts 22°
2026-05-04 18:28 44.68057 26.24461 6756 ft 252 kts 22°
2026-05-04 18:28 44.69672 26.25416 7670 ft 252 kts 22°
2026-05-04 18:28 44.71293 26.26374 8531 ft 254 kts 23°
2026-05-04 18:29 44.72926 26.27339 9392 ft 256 kts 23°
2026-05-04 18:29 44.74572 26.28314 10206 ft 258 kts 24°
2026-05-04 18:29 44.76283 26.29332 10536 ft 278 kts 24°
2026-05-04 18:29 44.78139 26.30436 10741 ft 301 kts 24°
2026-05-04 18:30 44.82129 26.32801 11848 ft 317 kts 24°
2026-05-04 18:30 44.84174 26.34013 12523 ft 321 kts 24°
2026-05-04 18:30 44.86246 26.35241 13191 ft 325 kts 24°
2026-05-04 18:31 44.88343 26.36486 13853 ft 329 kts 24°
2026-05-04 18:31 44.90465 26.37746 14442 ft 333 kts 24°
2026-05-04 18:31 44.92586 26.39005 15017 ft 337 kts 24°
2026-05-04 18:31 44.94756 26.40295 15593 ft 340 kts 24°
2026-05-04 18:32 44.96950 26.41604 16168 ft 344 kts 24°
2026-05-04 18:32 44.99168 26.42927 16731 ft 348 kts 23°
2026-05-04 18:32 45.01507 26.43905 17279 ft 354 kts 13°
2026-05-04 18:32 45.03947 26.44517 17832 ft 358 kts 12°
2026-05-04 18:33 45.06408 26.45133 18385 ft 361 kts 12°
2026-05-04 18:33 45.08893 26.45758 18869 ft 364 kts 12°
2026-05-04 18:33 45.11402 26.46388 19326 ft 368 kts 11°
2026-05-04 18:33 45.13937 26.47027 19783 ft 372 kts 11°
2026-05-04 18:34 45.16496 26.47674 20238 ft 375 kts 11°
2026-05-04 18:34 45.19076 26.48327 20690 ft 379 kts 10°
2026-05-04 18:34 45.21681 26.48987 21132 ft 382 kts 10°
2026-05-04 18:34 45.24309 26.49653 21584 ft 385 kts
2026-05-04 18:35 45.26961 26.50326 22016 ft 389 kts
2026-05-04 18:35 45.29633 26.51006 22466 ft 391 kts
2026-05-04 18:35 45.32322 26.51690 22906 ft 394 kts
2026-05-04 18:35 45.35031 26.52378 23328 ft 397 kts
2026-05-04 18:36 45.37764 26.53071 23723 ft 400 kts
2026-05-04 18:36 45.40517 26.53770 24057 ft 403 kts
2026-05-04 18:36 45.43287 26.54478 24394 ft 406 kts
2026-05-04 18:36 45.46079 26.55192 24718 ft 409 kts
2026-05-04 18:37 45.48892 26.55910 25042 ft 412 kts
2026-05-04 18:37 45.51720 26.56633 25380 ft 414 kts
2026-05-04 18:37 45.54562 26.57364 25699 ft 416 kts
2026-05-04 18:37 45.57426 26.58100 25988 ft 420 kts
2026-05-04 18:38 45.60308 26.58842 26305 ft 422 kts
2026-05-04 18:38 45.63208 26.59586 26609 ft 425 kts
2026-05-04 18:38 45.66120 26.60423 26892 ft 430 kts 14°
2026-05-04 18:38 45.68862 26.62173 27177 ft 437 kts 31°
2026-05-04 18:39 45.71281 26.64802 27356 ft 439 kts 37°
2026-05-04 18:39 45.73664 26.67567 27603 ft 443 kts 37°
2026-05-04 18:39 45.76053 26.70372 27868 ft 446 kts 37°
2026-05-04 18:39 45.78456 26.73201 28148 ft 449 kts 37°
2026-05-04 18:40 45.80877 26.76050 28414 ft 452 kts 37°
2026-05-04 18:40 45.83313 26.78915 28674 ft 454 kts 37°
2026-05-04 18:40 45.85768 26.81799 28907 ft 458 kts 37°
2026-05-04 18:40 45.88245 26.84709 29035 ft 463 kts 37°
2026-05-04 18:41 45.90758 26.87659 29064 ft 471 kts 37°
2026-05-04 18:41 45.95902 26.93713 29052 ft 485 kts 37°
2026-05-04 18:42 46.01142 26.99915 29049 ft 497 kts 37°
2026-05-04 18:42 46.06507 27.06261 29141 ft 490 kts 37°
2026-05-04 18:42 46.09122 27.09365 29016 ft 484 kts 37°
2026-05-04 18:43 46.11709 27.12446 29051 ft 485 kts 37°
2026-05-04 18:43 46.16968 27.18716 29055 ft 492 kts 37°
2026-05-04 18:43 46.19598 27.21859 28738 ft 490 kts 38°
2026-05-04 18:44 46.22218 27.24993 28415 ft 488 kts 38°
2026-05-04 18:44 46.23948 27.27064 28202 ft 487 kts 38°
2026-05-04 18:44 46.27425 27.31221 27760 ft 484 kts 38°
2026-05-04 18:44 46.30009 27.34318 27446 ft 481 kts 38°
2026-05-04 18:45 46.32598 27.37426 27173 ft 489 kts 38°
2026-05-04 18:45 46.35215 27.40571 27411 ft 488 kts 38°
2026-05-04 18:45 46.37812 27.43699 27194 ft 483 kts 38°
2026-05-04 18:45 46.40371 27.46787 26919 ft 470 kts 39°
2026-05-04 18:46 46.42801 27.49731 26608 ft 440 kts 39°
2026-05-04 18:46 46.45088 27.52507 26054 ft 420 kts 39°
2026-05-04 18:46 46.47297 27.55185 25316 ft 407 kts 39°
2026-05-04 18:46 46.49459 27.57803 24600 ft 405 kts 39°
2026-05-04 18:47 46.51624 27.60422 23912 ft 405 kts 39°
2026-05-04 18:47 46.53787 27.63039 23120 ft 405 kts 39°
2026-05-04 18:47 46.55948 27.65660 22296 ft 404 kts 39°
2026-05-04 18:47 46.58106 27.68282 21513 ft 405 kts 39°
2026-05-04 18:48 46.60235 27.70872 20746 ft 404 kts 40°
2026-05-04 18:48 46.62389 27.73495 19996 ft 404 kts 40°
2026-05-04 18:48 46.64540 27.76116 19263 ft 403 kts 40°
2026-05-04 18:48 46.66682 27.78732 18546 ft 402 kts 40°
2026-05-04 18:49 46.68817 27.81348 17771 ft 400 kts 40°
2026-05-04 18:49 46.70944 27.83958 16966 ft 399 kts 40°
2026-05-04 18:49 46.73059 27.86555 16191 ft 397 kts 40°
2026-05-04 18:49 46.75163 27.89137 15452 ft 390 kts 40°
2026-05-04 18:50 46.77192 27.91625 14716 ft 373 kts 40°
2026-05-04 18:50 46.79137 27.94011 14000 ft 357 kts 40°
2026-05-04 18:50 46.81003 27.96305 13218 ft 345 kts 40°
2026-05-04 18:50 46.82805 27.98523 12436 ft 333 kts 39°
2026-05-04 18:51 46.84549 28.00669 11665 ft 323 kts 39°
2026-05-04 18:51 46.86230 28.02742 11138 ft 308 kts 39°
2026-05-04 18:51 46.87843 28.04734 10688 ft 300 kts 39°
2026-05-04 18:51 46.89415 28.06679 10051 ft 293 kts 38°
2026-05-04 18:52 46.90934 28.08567 9728 ft 275 kts 39°
2026-05-04 18:52 46.92223 28.10503 9456 ft 260 kts 47°
2026-05-04 18:52 46.93243 28.12653 8901 ft 257 kts 57°
2026-05-04 18:52 46.93818 28.15130 8305 ft 262 kts 79°
2026-05-04 18:53 46.93810 28.17808 7667 ft 264 kts 87°
2026-05-04 18:53 46.93721 28.20479 7067 ft 262 kts 88°
2026-05-04 18:53 46.93621 28.23176 6067 ft 273 kts 89°
2026-05-04 18:53 46.93515 28.26002 4994 ft 283 kts 90°
2026-05-04 18:54 46.93402 28.28916 4021 ft 288 kts 91°
2026-05-04 18:54 46.93290 28.31778 3609 ft 272 kts 92°
2026-05-04 18:54 46.93183 28.34418 3490 ft 248 kts 92°
2026-05-04 18:54 46.93085 28.36809 3481 ft 226 kts 91°
2026-05-04 18:55 46.92998 28.39092 3493 ft 225 kts 91°
2026-05-04 18:55 46.92824 28.43632 3488 ft 223 kts 91°
2026-05-04 18:55 46.92739 28.45891 3496 ft 222 kts 91°
2026-05-04 18:56 46.92653 28.48157 3489 ft 223 kts 91°
2026-05-04 18:56 46.92564 28.50421 3493 ft 223 kts 91°
2026-05-04 18:56 46.92473 28.52683 3489 ft 221 kts 91°
2026-05-04 18:56 46.92384 28.54854 3495 ft 208 kts 91°
2026-05-04 18:57 46.92289 28.56937 3492 ft 203 kts 95°
2026-05-04 18:57 46.92123 28.58974 3498 ft 202 kts 91°
2026-05-04 18:57 46.92093 28.61017 3502 ft 201 kts 87°
2026-05-04 18:57 46.92123 28.63052 3515 ft 199 kts 86°
2026-05-04 18:58 46.92167 28.65071 3513 ft 195 kts 86°
2026-05-04 18:58 46.92208 28.66934 3482 ft 174 kts 85°
2026-05-04 18:58 46.92247 28.68644 3330 ft 159 kts 85°
2026-05-04 18:58 46.92281 28.70165 3147 ft 144 kts 85°
2026-05-04 18:59 46.92314 28.71595 2971 ft 139 kts 85°
2026-05-04 18:59 46.92346 28.72983 2790 ft 136 kts 86°
2026-05-04 18:59 46.92377 28.74360 2606 ft 135 kts 86°
2026-05-04 18:59 46.92408 28.75728 2435 ft 134 kts 86°
2026-05-04 19:00 46.92438 28.77092 2255 ft 134 kts 86°
2026-05-04 19:00 46.92467 28.78437 2080 ft 134 kts 87°
2026-05-04 19:00 46.92497 28.79801 1911 ft 135 kts 87°
2026-05-04 19:00 46.92527 28.81163 1736 ft 134 kts 87°
2026-05-04 19:01 46.92556 28.82526 1540 ft 135 kts 88°
2026-05-04 19:01 46.92579 28.83900 1344 ft 136 kts 88°
2026-05-04 19:01 46.92612 28.85285 1173 ft 137 kts 88°
2026-05-04 19:01 46.92645 28.86696 1005 ft 140 kts 89°
2026-05-04 19:02 46.92667 28.88125 802 ft 141 kts 89°
2026-05-04 19:02 46.92706 28.89566 613 ft 142 kts 89°
2026-05-04 19:02 46.92740 28.91010 433 ft 142 kts 90°
2026-05-04 19:02 46.92762 28.92306 408 ft 111 kts 88°
2026-05-04 19:03 46.92781 28.93203 407 ft 64 kts 88°
2026-05-04 19:03 46.92790 28.93653 408 ft 38 kts 88°
2026-05-04 19:03 46.92802 28.94037 409 ft 38 kts 86°
2026-05-04 19:03 46.92810 28.94424 409 ft 38 kts 89°
2026-05-04 19:04 46.92818 28.94814 408 ft 39 kts 87°
2026-05-04 19:04 46.92832 28.95089 406 ft 16 kts 53°
2026-05-04 19:04 46.92914 28.95113 409 ft 9 kts 358°
2026-05-04 19:04 46.92986 28.95103 410 ft 11 kts 336°
2026-05-04 19:05 46.93019 28.94978 410 ft 15 kts 280°
2026-05-04 19:05 46.93032 28.94798 409 ft 20 kts 276°
2026-05-04 19:05 46.93050 28.94565 407 ft 25 kts 277°
2026-05-04 19:05 46.93076 28.94303 405 ft 27 kts 277°
2026-05-04 19:06 46.93097 28.94069 403 ft 21 kts 279°
2026-05-04 19:06 46.93115 28.93881 407 ft 15 kts 278°
2026-05-04 19:06 46.93119 28.93839 407 ft 0 kts 278°
2026-05-04 19:06 46.93120 28.93832 407 ft 3 kts 279°
2026-05-04 19:07 46.93126 28.93815 403 ft 0 kts 306°
2026-05-04 19:07 46.93129 28.93791 407 ft 5 kts 275°
2026-05-04 19:07 46.93135 28.93699 408 ft 15 kts 275°
2026-05-04 19:07 46.93147 28.93496 411 ft 21 kts 276°
2026-05-04 19:08 46.93217 28.93458 406 ft 17 kts
2026-05-04 19:08 46.93302 28.93469 408 ft 6 kts
2026-05-04 19:08 46.93318 28.93472 408 ft 3 kts
2026-05-04 19:08 46.93324 28.93556 406 ft 11 kts 96°
2026-05-04 19:09 46.93367 28.93602 408 ft 6 kts
2026-05-04 19:09 46.93369 28.93603 408 ft 0 kts